Regional Weather Roundup
Issued by NWS

Home | Current Version | Previous Version | Graphics & Text | Print | Product List | Glossary On
Versions: 1 2 3 4 5 6 7 8 9 10 11 12 13 14 15 16 17 18 19 20 21 22 23 24 25 26 27 28 29 30 31 32 33 34 35 36 37 38 39 40 41 42 43 44 45 46 47 48 49 50
000
ASUS43 KLOT 271704
RWRIL

ILLINOIS REGIONAL WEATHER ROUNDUP
NATIONAL WEATHER SERVICE CHICAGO/ROMEOVILLE IL
1200 PM CDT SUN MAY 27 2018

NOTE: "FAIR" INDICATES FEW OR NO CLOUDS BELOW 12,000 FEET WITH NO
SIGNIFICANT WEATHER AND/OR OBSTRUCTIONS TO VISIBILITY.

* THESE STATIONS ARE NOT UNDER NWS QUALITY CONTROL. THEY ALSO MAY NOT
  REPORT WEATHER SUCH AS PRECIPITATION OR FOG.

ILZ001-002-007-009-015-016-024-271800-
NORTHWEST ILLINOIS

CITY           SKY/WX    TMP DP  RH WIND       PRES   REMARKS
MOLINE         FAIR      92  72  51 SW7       29.86R HX  99
STERLING*        N/A    N/A N/A N/A MISG        N/A
SAVANNA*       FAIR      90  69  50 SW8       29.87S HX  94
$$

ILZ003-004-008-010-011-017-018-271800-
NORTH CENTRAL ILLINOIS

CITY           SKY/WX    TMP DP  RH WIND       PRES   REMARKS
ROCKFORD       FAIR      90  64  42 SW5       29.89S HX  91
FREEPORT*      FAIR      90  64  41 SW9       29.89F HX  91
ROCHELLE*      FAIR      90  63  40 W3        29.89S HX  91
DE KALB*       FAIR      89  64  43 CALM      29.90R HX  90
PERU*          FAIR      94  65  38 SW3       29.89R HX  96
$$

ILZ005-006-012>014-019>023-271800-
NORTHEAST ILLINOIS

CITY           SKY/WX    TMP DP  RH WIND       PRES   REMARKS
CHICAGO-OHARE  FAIR      91  62  37 S5        29.87R HX  91
CHICAGO-MIDWAY FAIR      91  64  40 VRB3      29.87R HX  92
AURORA         FAIR      91  64  40 CALM      29.88S HX  92
LANSING*       FAIR      90  69  50 SW3       29.88S HX  94
JOLIET*        FAIR      91  69  49 S3        29.88S HX  95
WAUKEGAN       FAIR      90  59  35 CALM      29.87R HX  89
DUPAGE AIRPORT FAIR      90  65  43 S6        29.88R HX  92
KANKAKEE*      FAIR      92  65  41 SW7       29.89S HX  93
WHEELING       FAIR      93  60  33 CALM      29.89R HX  93
MORRIS*        FAIR      92  60  33 W5        29.87R HX  92
$$

LMZ740>746-271800-
SOUTHERN LAKE MICHIGAN

STATION/POSITION SKY/WX   TEMP    WIND        PRES    VSBY  WAVE
                          AIR SEA DIR/SP/G                  HT/PER
                          (F)     (DEG/KT/KT) (MB)    (MI)  (FT/S)
SOUTHERN BUOY              55 41  180/  6/  8 1012.2R         0
WILMETTE HARBOR            66 60  160/  4/  4   N/A           0
HARRISON CRIB              82     130/ 10/ 11   N/A
BURNHAM HARBOR                    180/  3/  5   N/A
CALUMET HARBOR             85     100/  6/  7 1011.3R
BURNS HARBOR               78        CALM     1012.2S
MICHIGAN CITY              81     350/  6/  6   N/A
MICHIGAN CITY 6N           81 69   50/  2/  4   N/A           0
ST. JOSEPH                 75 67  210/  2/  2 1012.0F         0
$$

ILZ025>027-034>036-040-047-049-050-058-095>099-271800-
WEST-CENTRAL ILLINOIS

CITY           SKY/WX    TMP DP  RH WIND       PRES   REMARKS
QUINCY         SUNNY     91  69  48 CALM      29.89S HX  96
GALESBURG*     FAIR      91  71  51 SW3       29.90R HX  97
MACOMB*        MOSUNNY   88  74  62 SW3       29.90S HX  96
JACKSONVILLE*  SUNNY     88  74  64 W7        29.89S HX  96
PITTSFIELD*    SUNNY     88  75  66 S3        29.91S HX  98
$$

ILZ028>032-037-038-041>044-048-051>054-059>061-271800-
CENTRAL ILLINOIS

CITY           SKY/WX    TMP DP  RH WIND       PRES   REMARKS
PONTIAC        FAIR      92  66  41 W3        29.89S HX  94
BLOOMINGTON    PTSUNNY   89  72  56 VRB7      29.91S HX  96
DECATUR        FAIR      90  71  53 S10       29.89F HX  96
PEORIA         FAIR      89  72  56 CALM      29.89R HX  96
LACON*         FAIR      89  69  51 SW6       29.88R HX  93
LINCOLN*       FAIR      90  75  61 CALM      29.89S HX  99
SPRINGFIELD    FAIR      92  74  55 W7        29.89R HX 101
TAYLORVILLE    FAIR      88  73  60 S6        29.90S HX  95
$$

ILZ033-039-045-046-055>057-062-063-271800-
EAST-CENTRAL ILLINOIS

CITY           SKY/WX    TMP DP  RH WIND       PRES   REMARKS
CHAMPAIGN      FAIR      89  71  55 SW7       29.90S HX  95
DANVILLE*      FAIR      89  69  51 S7        29.88S HX  93
RANTOUL*       FAIR      91  72  54 SW6       29.90S HX  98
MATTOON        FAIR      88  73  61 S6        29.90S HX  95
PARIS*         FAIR      89  71  55 S7        29.91S HX  94
$$

ILZ079-100>102-271800-
SOUTHWEST ILLINOIS

CITY           SKY/WX    TMP DP  RH WIND       PRES   REMARKS
ALTON          MOSUNNY   90  75  62 SW5       29.91S HX 100
BELLEVILLE     MOSUNNY   87  73  63 CALM      29.89F HX  94
CAHOKIA*       MOSUNNY   90  72  55 VRB5      29.90S HX  97
SPARTA*        SUNNY     87  75  67 CALM      29.92F HX  96
$$

ILZ064>066-069>071-074>076-080>082-084>086-088>090-092>094-271800-
SOUTH-CENTRAL ILLINOIS

CITY           SKY/WX    TMP DP  RH WIND       PRES   REMARKS
CARBONDALE     FAIR      87  72  60 SW6       29.91F HX  93
CAIRO*         FAIR      85  73  67 SW5       29.92S HX  92
EFFINGHAM*     FAIR      90  68  47 SE5       29.92F HX  94
MT. VERNON     FAIR      89  74  60 S5        29.90F HX  98
CENTRALIA*     MOSUNNY   91  72  54 W7        29.90F HX  97
SALEM*         FAIR      90  71  53 S8        29.91S HX  96
METROPOLIS*    FAIR      88  69  53 CALM      29.93S HAZE    HX  93
$$

ILZ067-068-072-073-078-083-087-091-271800-
SOUTHEAST ILLINOIS

CITY           SKY/WX    TMP DP  RH WIND       PRES   REMARKS
LAWRENCEVILLE  FAIR      91  66  43 MISG      29.90F HX  93
FLORA*         FAIR      90  72  55 CALM      29.90F HX  96
FAIRFIELD*     TSTM      80  65  59 S13G21    29.90R HX  82
HARRISBURG*    FAIR      87  73  62 SW3       29.92S HX  94
ROBINSON*      FAIR      89  69  51 CALM      29.91S HX  93
CARMI*         FAIR      91  69  48 S9        29.89F HX  95
$$

ABBREVIATIONS USED IN REMARKS
   TC - TEMPERATURE IN CELSIUS
  WCI - WIND CHILL INDEX
   HX - HEAT INDEX
  VSB - VISIBILITY
$$




USA.gov is the U.S. government's official web portal to all federal, state and local government web resources and services.